Find Starlink 11519

NORAD ID: 62560 Int'l Des: 2025-006 Owner: SPXS Country: US Constellation: starlink operational
LEOCIRCULAR

Current View

Loading 3D Globe...

About Starlink 11519

Starlink 11519 (NORAD 62560) is a starlink constellation satellite (v2 mini d2c) launched Jan 10, 2025 by SPXS of US. It operates in LEO, CIRCULAR orbit with a mass of 960.00 kg.

About Starlink 11519

Description loading...

Upcoming Passes

Passes for default location (London). Set your location on the main map for personalized predictions.

Altitude History

Loading altitude history...

Two-Line Element Set

1 62560U 25006G 26169.50526362 .00118837 00000-0 91532-3 0 9996
2 62560 42.9986 252.6121 0002054 295.2200 64.8454 15.70868174 82456
Epoch: Jun 18, 2026 • Age: 13 hours

Current Status

Altitude 360.3 km
Velocity 7.70 km/s
Sub-Earth Point 42.37°N, 74.22°E
Launch Date Jan 10, 2025
Age 1.4 years
Type internet

Technical Details

Classification Payload
Mass 960.00 kg
Dry Mass 910.00 kg
Total Mass 960.00 kg
Length 0.30 m
Diameter 4.10 m
Span 29.00 m
Shape Box + pan
Manufacturer SPXS
Bus Type Starlink V2MD
Phase Status In Orbit
Owner/State SPXS/US

Most Searched